User: anonymous   Login
Location: Centerville
(32.8776°N, 96.6203°W)
Time: 07:19:59
(UTC+00:00)
Language:

Nadezhda 4 Rocket - Orbit

View from above orbital plane
View from above orbital plane
View from above satellite
View from above satellite

Ground track
Ground track

The orbit data is extracted from the following two-line orbital elements,

1 23180U 94041B   21265.58688503  .00000083  00000-0  66827-4 0  9995
2 23180  82.9483 211.3443 0028967 171.9730   1.6375 13.78016415367114
Epoch (UTC): 22 September 2021 14:05:06
Eccentricity: 0.0028967
inclination: 82.9483°
perigee height: 949 km
apogee height: 992 km
right ascension of ascending node: 211.3443°
argument of perigee: 171.9730°
revolutions per day: 13.78016415
mean anomaly at epoch: 1.6375°
orbit number at epoch: 36711

The dashed part of the orbit path shows where the satellite is in the earth's shadow,  

DLR